Temp
84 83 84 87 87 87 84 85 83 79 83 88 88 88 90 90 87 89 87 71 72 71 70 70 70 71 71 71 71 71 71 71 71 71 72 73 74 75
87 84 83 87 84 86 80 82 84 81 80 88 90 89 88 90 85 86 85 74 71 70 69 69 69 70 70 70 70 70 70 70 70 70 70 71 72 73
82 83 82 82 86 85 82 80 79 77 79 86 87 88 84 85 86 85 81 79 74 69 68 68 68 68 68 68 68 68 68 68 68 69 69 70 70 71
83 81 82 84 82 83 85 81 80 80 78 77 80 87 84 84 82 76 81 77 78 69 67 67 66 66 66 65 65 64 64 65 65 66 67 68 68 69
83 82 83 82 82 85 82 83 81 81 79 78 79 85 81 83 74 72 71 73 73 68 66 65 65 64 63 62 62 61 59 60 61 62 63 65 66 67
82 81 82 82 82 80 81 81 81 79 79 79 83 83 78 79 76 70 67 68 68 76 71 71 67 64 63 61 61 60 58 58 58 59 59 60 62 63
79 81 82 80 76 77 82 82 80 79 79 80 78 79 80 74 71 69 68 67 67 69 68 72 73 74 70 65 65 62 60 59 58 57 57 57 58 59
79 80 81 77 75 70 70 72 78 80 79 80 82 79 79 79 78 70 67 64 62 66 66 69 73 69 72 70 63 61 60 59 58 57 57 57 57 57
77 78 80 84 78 81 73 68 69 69 72 81 79 81 81 82 79 72 68 68 68 66 67 65 69 66 66 65 61 60 59 59 58 58 57 57 56 56
72 76 77 79 80 80 81 82 81 80 77 80 81 83 84 83 80 79 76 72 68 66 69 61 63 61 62 63 61 60 59 58 58 57 56 56 54 54
71 73 74 74 71 67 76 79 80 82 74 67 68 65 63 65 73 79 70 65 63 63 67 63 59 56 59 57 58 59 58 57 57 57 57 56 54 54
67 69 66 68 65 63 71 74 74 76 82 81 76 68 66 68 64 75 72 66 63 62 65 60 57 56 53 56 57 56 57 56 56 56 56 56 54 72
61 65 71 63 59 58 60 74 75 78 75 78 74 69 68 66 65 65 68 68 63 60 63 60 58 58 56 53 55 56 58 57 64 60 54 54 53 56
56 60 63 58 54 54 58 62 59 64 72 70 66 63 61 60 59 59 59 60 61 61 62 62 58 58 54 53 52 55 57 61 65 66 67 57 52 52
57 58 56 55 54 58 57 58 58 66 66 65 64 59 60 57 57 58 58 58 56 57 57 60 61 60 58 57 54 54 56 60 64 66 67 68 70 69
54 56 57 57 57 62 62 61 63 66 64 63 60 59 59 58 57 58 57 56 55 54 56 58 58 58 56 58 60 59 64 57 63 67 68 68 69 70
52 55 58 57 58 60 63 63 64 62 58 57 57 56 56 56 56 57 56 56 54 52 52 54 56 57 58 60 61 63 61 64 68 66 67 65 67 68
53 58 60 60 60 61 61 61 61 59 58 58 56 56 55 55 55 56 56 54 53 53 52 55 59 60 61 62 64 66 67 66 66 65 67 66 66 69
56 56 56 57 58 58 59 58 58 58 58 57 56 56 55 55 55 54 55 57 57 56 57 59 62 64 63 61 64 53 66 66 66 65 67 68 67 69
55 55 55 56 56 56 56 56 56 56 57 57 56 56 56 56 57 57 57 57 57 57 59 65 71 71 68 65 64 63 51 67 67 66 66 68 68 56
57 55 54 54 55 55 56 56 57 56 56 56 57 57 58 58 57 58 59 57 62 69 68 69 69 62 71 71 66 65 66 53 61 68 67 68 68 67
60 58 56 55 54 55 56 55 56 56 57 60 62 60 58 61 62 65 68 68 70 71 70 68 68 71 71 70 67 64 66 67 56 56 56 57 65 62
67 65 65 63 58 56 56 61 59 58 62 66 68 67 69 70 70 71 71 71 70 68 67 67 68 70 68 68 65 67 63 64 67 66 66 56 56 56
MSLP
1017.75 1017.94 1017.92 1017.64 1017.70 1017.81 1018.04 1017.72 1017.33 1016.73 1016.15 1016.01 1016.15 1016.52 1016.67 1016.86 1016.93 1017.03 1017.38 1018.24 1018.45 1018.70 1018.81 1019.15 1019.29 1019.49 1019.70 1019.87 1019.94 1020.09 1020.22 1020.33 1020.38 1020.32 1020.18 1020.06 1019.88 1019.71
1017.09 1017.18 1017.39 1017.24 1017.37 1017.50 1017.71 1017.64 1017.40 1017.19 1016.50 1016.21 1016.12 1016.53 1016.61 1016.60 1017.11 1017.08 1017.39 1018.26 1018.67 1018.79 1018.90 1019.13 1019.44 1019.64 1019.87 1020.05 1020.18 1020.34 1020.55 1020.67 1020.66 1020.62 1020.55 1020.42 1020.28 1020.16
1016.65 1016.61 1016.59 1016.69 1016.70 1016.95 1017.13 1017.32 1017.29 1017.33 1016.89 1016.12 1016.50 1016.50 1016.67 1016.72 1016.86 1017.22 1017.79 1018.04 1018.73 1019.11 1019.25 1019.38 1019.57 1019.79 1020.05 1020.23 1020.36 1020.49 1020.71 1020.91 1020.98 1020.97 1020.92 1020.86 1020.76 1020.64
1016.11 1016.14 1016.04 1016.17 1016.20 1016.33 1016.44 1016.61 1016.78 1016.94 1016.96 1016.48 1016.49 1016.15 1016.41 1016.75 1017.16 1017.79 1017.54 1018.10 1018.30 1019.13 1019.34 1019.61 1019.76 1020.11 1020.30 1020.46 1020.63 1020.77 1020.95 1021.16 1021.31 1021.29 1021.27 1021.25 1021.20 1021.12
1015.52 1015.44 1015.37 1015.40 1015.48 1015.51 1015.80 1015.91 1016.09 1016.25 1016.42 1016.41 1016.16 1016.03 1016.34 1016.68 1017.49 1018.03 1018.35 1018.37 1018.52 1019.17 1019.55 1019.86 1020.14 1020.34 1020.56 1020.69 1020.85 1021.02 1021.13 1021.25 1021.47 1021.72 1021.72 1021.88 1021.90 1021.89
1015.02 1014.98 1014.80 1014.73 1014.86 1014.99 1015.17 1015.35 1015.55 1015.70 1015.82 1015.89 1015.48 1015.49 1015.98 1016.27 1016.90 1017.64 1018.41 1018.73 1018.96 1018.85 1019.47 1019.54 1020.26 1020.67 1020.80 1020.89 1021.11 1021.35 1021.54 1021.68 1021.82 1022.09 1022.24 1022.39 1022.49 1022.66
1014.53 1014.46 1014.29 1014.24 1014.24 1014.30 1014.40 1014.38 1014.81 1014.98 1015.14 1015.17 1015.04 1015.15 1015.16 1015.92 1016.26 1016.94 1017.66 1018.35 1018.79 1019.01 1019.44 1019.49 1019.91 1020.19 1020.75 1021.05 1021.37 1021.66 1021.81 1022.05 1022.26 1022.48 1022.75 1022.85 1023.07 1023.21
1013.80 1013.62 1013.58 1013.67 1013.71 1013.74 1013.71 1013.81 1013.87 1013.91 1014.08 1014.11 1013.94 1014.14 1014.26 1014.73 1015.23 1016.13 1017.00 1017.94 1018.66 1019.08 1019.18 1019.16 1019.49 1020.10 1020.22 1020.73 1021.38 1021.72 1022.05 1022.30 1022.61 1022.72 1023.04 1023.16 1023.35 1023.59
1013.33 1013.09 1012.86 1012.56 1012.74 1012.86 1012.84 1013.13 1013.18 1013.15 1013.17 1013.14 1013.12 1013.01 1013.08 1013.46 1014.19 1015.15 1015.81 1016.40 1016.90 1017.81 1018.61 1019.01 1019.67 1020.18 1020.58 1021.02 1021.55 1021.98 1022.23 1022.56 1022.73 1022.90 1023.11 1023.43 1023.73 1023.87
1012.97 1012.44 1012.09 1011.80 1011.92 1012.01 1012.08 1011.87 1011.87 1011.88 1012.20 1012.40 1012.36 1012.22 1012.39 1012.78 1013.22 1013.63 1014.46 1015.47 1016.33 1017.14 1017.44 1018.48 1019.67 1020.29 1020.88 1021.31 1021.62 1021.95 1022.43 1022.69 1023.13 1022.98 1023.22 1023.41 1023.61 1023.84
1012.29 1011.89 1011.54 1011.15 1011.12 1011.53 1011.64 1011.14 1010.86 1010.70 1010.78 1011.21 1011.54 1012.02 1012.26 1012.12 1012.35 1013.21 1014.02 1015.10 1015.97 1016.60 1017.00 1017.58 1019.16 1020.42 1021.20 1021.77 1022.29 1021.96 1022.47 1022.88 1023.40 1023.38 1023.51 1023.67 1023.70 1023.77
1011.91 1011.22 1010.85 1010.66 1010.48 1010.81 1010.91 1010.66 1010.27 1010.25 1010.28 1010.76 1011.60 1012.13 1012.16 1012.32 1012.73 1012.67 1013.45 1014.29 1015.23 1016.18 1016.63 1017.27 1018.45 1019.32 1021.25 1022.14 1022.39 1022.69 1022.91 1023.56 1023.34 1023.61 1023.73 1023.80 1023.77 1022.96
1011.30 1010.83 1010.18 1009.90 1009.99 1010.16 1010.30 1010.08 1009.66 1009.62 1009.76 1010.14 1011.03 1011.86 1012.45 1012.92 1013.22 1013.12 1013.07 1012.84 1014.24 1014.94 1015.17 1016.16 1017.43 1018.58 1019.41 1021.26 1022.21 1022.79 1023.14 1023.07 1022.87 1023.29 1023.61 1023.60 1023.68 1023.66
1010.69 1010.37 1010.05 1009.94 1009.86 1009.84 1009.77 1009.45 1009.56 1009.76 1009.87 1010.48 1011.18 1011.94 1012.37 1013.22 1013.48 1013.88 1013.54 1013.88 1014.17 1014.62 1014.88 1014.34 1015.88 1016.84 1018.62 1020.80 1021.54 1022.11 1022.65 1022.59 1022.50 1022.31 1022.43 1023.12 1023.47 1023.56
1009.71 1009.37 1009.36 1009.18 1009.10 1009.04 1008.78 1008.83 1009.07 1009.31 1009.66 1010.35 1011.21 1012.09 1012.25 1012.95 1013.16 1013.46 1014.32 1014.50 1014.96 1015.53 1015.55 1015.59 1014.58 1016.44 1017.79 1019.34 1020.55 1021.36 1021.93 1021.93 1022.16 1022.04 1022.01 1022.12 1022.38 1022.75
1008.82 1008.58 1008.54 1008.54 1008.50 1008.07 1008.05 1008.14 1008.33 1008.70 1009.40 1010.25 1011.37 1012.38 1013.21 1013.59 1014.11 1014.22 1014.15 1015.03 1015.50 1016.29 1016.40 1016.40 1016.72 1017.52 1018.26 1018.91 1019.47 1020.55 1020.92 1021.44 1021.93 1021.81 1021.89 1022.23 1022.54 1022.58
1008.61 1008.21 1007.69 1007.60 1007.54 1007.54 1007.61 1007.78 1007.86 1008.68 1009.65 1010.73 1011.60 1012.54 1013.30 1013.88 1014.21 1014.93 1015.07 1015.40 1015.90 1016.67 1017.42 1017.44 1017.91 1018.02 1018.40 1018.66 1019.54 1020.06 1020.61 1021.05 1021.29 1021.81 1021.95 1022.19 1022.39 1022.59
1008.20 1007.60 1007.17 1007.08 1006.98 1007.19 1007.40 1008.10 1008.21 1009.10 1009.99 1010.84 1011.83 1012.63 1013.33 1014.06 1014.89 1015.47 1015.76 1016.18 1016.47 1017.14 1017.41 1017.76 1018.00 1017.98 1018.65 1018.99 1019.30 1019.77 1020.30 1020.82 1021.49 1021.84 1021.91 1021.90 1021.93 1022.24
1008.24 1008.28 1008.02 1007.69 1007.68 1007.85 1008.05 1008.39 1009.16 1010.01 1010.59 1011.43 1012.20 1013.10 1013.90 1014.77 1015.39 1015.90 1016.28 1016.53 1017.03 1017.41 1017.56 1017.66 1017.42 1017.22 1017.60 1018.61 1020.25 1020.80 1020.34 1020.93 1021.47 1021.66 1021.81 1021.87 1021.82 1021.91
1009.45 1009.35 1009.18 1008.84 1008.78 1008.90 1009.15 1009.28 1010.17 1010.81 1011.47 1012.05 1012.93 1013.71 1014.55 1015.08 1015.77 1016.19 1016.53 1016.71 1016.91 1017.27 1017.41 1017.13 1016.93 1017.23 1017.44 1018.08 1019.16 1020.72 1020.97 1020.85 1021.17 1021.39 1021.59 1021.83 1021.82 1022.42
1010.71 1010.45 1010.32 1010.27 1010.21 1010.21 1010.39 1010.88 1011.35 1011.79 1012.14 1012.76 1013.60 1014.29 1014.91 1015.44 1015.90 1016.28 1016.56 1016.54 1016.49 1016.57 1016.68 1016.99 1017.78 1018.08 1018.09 1018.53 1019.26 1020.17 1021.07 1021.58 1021.33 1021.21 1021.71 1021.50 1021.55 1021.65
1011.73 1011.63 1011.52 1011.64 1011.65 1011.77 1011.79 1011.99 1012.38 1012.82 1013.15 1013.46 1014.14 1014.79 1015.25 1015.56 1015.74 1015.88 1015.93 1016.25 1016.26 1016.53 1016.90 1017.85 1018.30 1018.17 1018.16 1018.13 1018.68 1019.82 1020.45 1021.12 1022.09 1022.10 1022.21 1022.24 1021.89 1021.60
1012.31 1012.35 1012.29 1012.51 1013.01 1013.09 1013.06 1013.09 1013.43 1013.59 1013.66 1013.98 1014.35 1014.76 1015.05 1015.03 1015.18 1015.43 1015.47 1015.89 1016.22 1016.72 1017.43 1017.82 1018.36 1018.46 1018.57 1018.75 1019.21 1019.66 1020.60 1020.93 1021.01 1021.40 1021.65 1022.30 1022.41 1022.39
Wind_Speed
8 8 7 6 5 5 6 6 7 8 6 3 3 1 2 3 2 3 3 7 7 8 10 9 10 10 10 10 11 10 10 10 10 11 11 12 12 14
8 9 8 7 6 6 5 6 6 7 8 3 4 2 2 3 3 4 4 7 6 9 10 11 10 10 10 10 11 11 11 11 11 11 12 12 11 12
10 11 11 10 8 7 6 6 6 6 8 7 4 3 4 5 3 2 5 5 5 7 9 9 11 11 11 11 11 12 11 11 10 12 12 12 13 14
11 10 12 8 10 9 7 9 7 7 6 11 7 7 5 2 3 4 4 4 6 7 8 9 10 10 11 11 12 12 11 11 11 11 12 12 13 14
11 11 12 12 11 10 9 9 7 6 6 7 8 7 3 3 3 3 4 4 4 11 10 9 10 11 11 11 11 11 10 11 11 10 11 11 13 14
12 11 12 13 12 11 10 10 8 7 7 7 9 7 6 4 4 3 3 1 5 6 6 8 9 12 13 12 12 11 10 10 11 11 12 12 13 13
11 12 13 14 13 13 9 9 10 9 8 9 8 8 8 4 6 4 4 5 3 3 6 7 8 7 8 8 11 12 12 12 12 12 12 12 12 12
13 14 13 13 14 16 16 16 13 11 12 10 10 11 12 9 7 5 6 4 4 6 6 6 6 6 7 6 10 13 13 14 13 13 11 12 12 11
15 13 13 12 13 15 15 17 17 16 17 12 13 13 12 11 9 9 10 8 6 9 7 7 7 7 5 8 12 12 12 11 11 12 12 12 11 10
13 16 17 16 16 15 15 15 14 14 15 14 17 15 14 10 11 11 12 8 4 8 8 5 6 4 5 6 11 12 10 9 9 11 11 10 9 8
14 15 15 14 15 13 17 17 16 14 11 14 12 4 6 6 8 6 6 8 3 5 8 4 5 5 4 4 4 11 6 8 7 8 8 7 7 7
13 15 17 19 14 12 14 15 14 12 12 9 6 5 4 4 9 9 8 8 5 3 5 3 9 5 4 2 3 3 3 4 6 6 6 6 5 4
11 11 12 11 14 16 16 13 14 11 9 7 4 4 4 4 2 2 2 7 6 3 7 5 8 5 4 5 3 3 3 4 5 5 7 6 6 5
12 11 12 11 9 9 11 16 11 6 4 5 5 6 6 4 2 5 6 6 6 2 9 13 9 9 8 5 4 5 3 3 5 5 4 5 7 5
10 14 16 12 12 12 12 13 10 7 6 7 7 4 4 6 11 11 9 12 12 10 8 5 11 12 11 8 6 6 6 6 5 5 4 4 2 1
11 11 12 14 13 11 6 5 6 7 7 7 7 7 7 7 7 5 9 8 9 8 9 10 9 4 4 7 7 10 7 4 6 5 4 4 3 2
6 5 6 6 6 6 6 5 7 8 9 8 9 8 7 7 7 6 6 6 9 6 4 6 7 9 6 8 8 9 7 8 7 6 4 4 3 2
2 3 2 4 4 4 5 5 8 10 9 10 9 9 9 9 9 7 7 8 10 6 6 6 9 10 7 9 10 9 7 7 6 5 4 3 3 3
7 7 6 6 5 5 5 8 8 7 11 10 10 10 9 9 10 8 7 8 6 4 4 3 6 7 10 9 5 13 7 6 6 4 3 2 1 1
9 9 8 7 7 7 7 9 9 9 9 10 11 10 9 9 8 7 5 4 6 5 4 4 7 6 7 7 6 5 9 7 5 4 4 3 0 0
9 9 9 9 9 9 9 9 9 9 9 10 10 9 8 7 6 5 4 6 10 9 9 8 7 5 8 8 8 8 6 7 4 2 3 3 2 3
10 9 9 8 8 7 8 9 9 9 9 9 10 8 6 7 8 7 8 9 7 8 7 8 7 6 5 3 6 8 6 6 4 2 3 3 4 4
10 10 9 10 8 7 7 9 9 8 9 11 10 10 9 8 8 7 7 5 6 8 8 8 6 4 4 4 4 5 7 5 4 4 6 5 2 4
Wind_Direction
236 239 248 258 252 241 249 250 268 279 278 268 280 133 235 233 175 214 177 127 124 124 117 125 121 117 114 116 113 108 101 91 81 74 70 66 63 66
243 239 241 251 249 239 233 246 248 261 276 267 264 317 280 257 157 204 115 127 131 136 138 130 128 124 121 120 114 106 100 97 93 87 81 77 75 78
258 245 241 235 246 243 233 243 236 233 251 259 269 280 252 240 186 173 158 136 131 135 131 133 131 126 127 120 111 105 101 96 92 89 87 82 74 74
253 255 248 249 241 241 244 242 237 227 246 267 274 273 268 243 190 184 164 140 158 138 135 132 123 121 116 111 106 105 102 94 90 93 92 93 93 91
254 252 249 248 245 249 240 248 241 233 230 255 270 267 266 178 150 111 130 141 127 122 109 110 118 118 115 113 113 113 111 108 100 88 87 86 86 88
256 252 251 248 245 249 243 244 249 248 246 244 261 258 240 179 177 154 157 156 148 152 111 101 142 130 128 122 123 120 109 105 101 96 85 77 80 83
257 256 248 246 244 240 241 244 233 244 247 249 255 249 243 193 207 158 167 159 156 155 159 164 156 153 138 139 124 127 120 113 109 101 94 91 88 89
261 257 255 250 242 238 231 236 239 234 240 239 247 244 251 235 212 172 144 158 183 179 170 178 154 165 146 161 126 135 130 123 116 112 111 105 97 94
256 257 255 254 242 252 235 233 237 231 235 246 246 245 245 233 220 184 183 189 192 154 173 163 168 155 152 127 139 136 126 128 128 122 113 109 106 106
262 259 253 257 254 252 250 248 237 232 226 232 240 249 247 239 217 210 207 186 105 155 174 149 155 139 136 131 134 133 132 134 142 131 129 129 124 119
265 261 260 253 247 226 246 252 251 243 205 214 246 348 349 221 214 196 172 166 150 180 192 136 141 113 100 106 120 114 132 151 152 141 138 144 143 153
279 268 253 255 258 223 229 235 244 242 236 229 227 221 226 232 235 203 182 193 145 144 183 136 143 142 119 61 97 80 129 183 154 165 167 169 186 248
278 275 269 248 237 227 222 244 244 259 241 230 202 136 97 78 73 40 147 175 168 194 180 140 155 141 85 121 123 153 223 163 185 191 204 208 219 273
266 264 262 266 282 248 234 234 234 207 182 167 138 145 139 99 64 41 80 66 44 35 182 163 146 151 126 129 171 153 189 207 201 193 181 152 207 208
262 255 261 250 239 261 247 234 193 196 169 159 156 155 144 127 133 123 91 90 74 57 42 8 132 135 138 149 144 156 160 186 185 175 158 144 100 62
270 258 247 244 247 260 253 207 180 167 159 145 121 111 115 126 113 109 115 104 96 77 47 50 78 95 98 127 146 160 157 142 166 153 136 120 128 77
278 275 246 218 215 220 215 181 139 125 118 122 123 124 122 110 96 106 105 99 104 108 92 71 81 84 65 131 138 138 127 143 145 133 166 132 108 122
198 278 244 211 182 159 124 117 118 118 125 125 121 121 116 115 119 108 104 111 121 120 119 136 141 125 119 67 55 133 135 127 127 126 126 172 165 164
43 33 34 43 54 91 110 110 108 116 118 117 117 118 117 116 124 122 124 132 128 127 136 180 178 128 131 117 107 23 130 128 137 129 149 197 258 156
40 40 39 42 58 70 75 94 101 104 109 111 113 115 121 129 131 133 132 127 123 123 139 137 131 136 139 135 133 100 19 140 164 165 176 178 153 300
42 46 51 54 52 69 75 78 91 100 109 113 116 122 129 134 130 134 131 159 158 157 142 127 82 66 108 123 124 136 119 39 11 248 163 254 303 299
49 55 51 46 57 66 83 101 107 102 109 119 126 131 127 138 142 163 164 161 158 149 127 109 134 132 139 136 118 137 152 142 120 73 34 352 333 322
59 62 69 82 77 66 80 97 94 98 116 127 136 144 153 157 156 156 162 142 130 128 142 132 129 125 116 105 117 132 131 169 162 180 165 187 240 289